Tracking 17143 objects as of 25-May-2015
HD Live streaming from Space Station

N-1 R/B

Track N-1 R/B now!
10-day predictions
N-1 R/B is classified as:


NORAD ID: 8710
Int'l Code: 1976-019B
Perigee: 999.8 km
Apogee: 1,015.0 km
Inclination: 69.7 °
Period: 105.1 minutes
Semi major axis: 7378 km
RCS: 1.547 m2 (large)
Launch date: February 29, 1976
Source: Japan (JPN)

Note: This is a ROCKET BODY
Your satellite tracking list
Your tracking list is empty





NASA's NSSDC Master Catalog

Two Line Element Set (TLE):
1 08710U 76019B   15145.57524910 -.00000025  00000-0  30497-4 0  9993
2 08710 069.6765 326.1867 0010307 093.2253 323.7069 13.69818738961959

Source of the keplerian elements: AFSPC

N2YO: 424